Regional Weather Roundup
Issued by NWS

Home | Current Version | Previous Version | Graphics & Text | Print | Product List | Glossary Off
Versions: 1 2 3 4 5 6 7 8 9 10 11 12 13 14 15 16 17 18 19 20 21 22 23 24 25 26 27 28 29 30 31 32 33 34 35 36 37 38 39 40 41 42 43 44 45 46 47 48 49 50

151
ASUS43 KMPX 300310
RWRMN
WEATHER ROUNDUP FOR MINNESOTA
NATIONAL WEATHER SERVICE TWIN CITIES/CHANHASSEN MN
1000 PM CDT MON MAY 29 2017


NOTE: "FAIR" INDICATES FEW OR NO CLOUDS BELOW 12,000 FEET WITH NO
SIGNIFICANT WEATHER AND/OR OBSTRUCTIONS TO VISIBILITY. N/A MEANS
CURRENT SKY AND/OR WEATHER CONDITIONS ARE NOT AVAILABLE.

MNZ060>063-068>070-300400-
   Twin Cities Metro

CITY           SKY/WX    TMP DP  RH WIND       PRES   REMARKS
TWIN CITIES    MOCLDY    58  46  64 NW10      29.87R
ST PAUL        CLOUDY    58  46  64 NW13G20   29.87R
CRYSTAL        CLOUDY    56  45  66 W8        29.86R
BLAINE         PTCLDY    55  50  82 W7        29.86S
LAKEVILLE      CLOUDY    55  46  71 W8        29.88R
EDEN PRAIRIE   MOCLDY    58  45  62 W10       29.87R
SOUTH ST PAUL  MOCLDY    58  46  63 NW8       29.86R
LAKE ELMO      CLOUDY    54  50  87 NW6       29.87R
$$
MNZ001>005-007-008-013>017-022>024-027-028-300400-
   Northwest Minnesota

CITY           SKY/WX    TMP DP  RH WIND       PRES   REMARKS
BEMIDJI        CLOUDY    46  40  79 W16G23    29.84R
HALLOCK        CLOUDY    45  43  93 NW9       29.89R
ROSEAU         CLOUDY    46  39  76 NW16G23   29.85R
WARROAD        CLOUDY    43  39  87 NW7       29.84R
THIEF RVR FALL CLOUDY    45  41  86 NW15      29.88R
CROOKSTON      DRIZZLE   46  45  93 N14       29.90R
FOSSTON        DRIZZLE   45  41  87 NW13G20   29.87S
DETROIT LAKES  CLOUDY    50  45  81 NW15      29.90R
MOORHEAD       CLOUDY    52  46  82 N7        29.92R
PARK RAPIDS    CLOUDY    50  40  68 NW17      29.85R
MAHNOMEN       CLOUDY    46  42  87 NW16      29.88R
$$
MNZ006-009>011-018-025>026-300400-
   North Central Minnesota

CITY           SKY/WX    TMP DP  RH WIND       PRES   REMARKS
BAUDETTE       CLOUDY    44  41  89 W9        29.80R
FLAG ISLAND    CLOUDY    45  43  93 NW16      29.80R
INTL FALLS     CLOUDY    48  37  65 NW7       29.77R
WASKISH        CLOUDY    48  39  71 NW15G22   29.81R
BIG FORK       CLOUDY    50  39  66 W3        29.79R
LONGVILLE      CLOUDY    52  41  66 W12G21    29.82R
GRAND RAPIDS   LGT RAIN  51  43  74 NW20G26   29.81R
CRANE LAKE     CLOUDY    48  41  76 CALM      29.77R
ORR            CLOUDY    48  39  71 NW7       29.74R
COOK           CLOUDY    50  41  71 W5        29.76S
WALKER         CLOUDY    48  40  74 NW15      29.84R
$$
MNZ012-019>021-037-300400-
   Northeast Minnesota

CITY           SKY/WX    TMP DP  RH WIND       PRES   REMARKS
DULUTH         MOCLDY    54  44  69 W9        29.76R
ELY            CLOUDY    48  43  81 W6        29.74S
HIBBING        CLOUDY    50  42  74 W6        29.76S
EVELETH        CLOUDY    53  39  60 W9        29.77R
DULUTH HARBOR  CLOUDY    55  46  71 W9        29.77S
TWO HARBORS    PTCLDY    52  46  82 CALM      29.74R
SILVER BAY     CLEAR     52  45  76 CALM      29.72R
GRAND MARAIS     N/A     54  45  71 W7        29.68R
G MARAIS ARPRT CLOUDY    48  41  76 W13G21    29.69R
$$
MNZ029>031-032-039>041-046>048-054>057-064-300400-
   West Central Minnesota

CITY           SKY/WX    TMP DP  RH WIND       PRES   REMARKS
FERGUS FALLS   CLOUDY    52  48  87 N7        29.90S
WHEATON        CLOUDY    54  46  76 W5        29.95R
MORRIS         CLOUDY    55  45  67 NW10      29.91S
ALEXANDRIA     CLOUDY    51  47  86 W9        29.90S
ELBOW LAKE     CLOUDY    52  46  78 NW12G17   29.91S
WADENA         CLOUDY    50  45  81 NW10G17   29.87S
GLENWOOD       MOCLDY    50  46  87 W10       29.90S
APPLETON       CLOUDY    57  45  62 NW8       29.93R
BENSON         CLOUDY    55  45  67 N9        29.93S
ORTONVILLE     CLOUDY    57  43  58 NW7       29.94R
MADISON        CLOUDY    59  45  58 NW9       29.94S
WILLMAR        MOCLDY    55  46  71 NW21G29   29.93R
$$
MNZ033>034-036-042>043-049>051-058-059-300400-
   Central Minnesota

CITY           SKY/WX    TMP DP  RH WIND       PRES   REMARKS
ST CLOUD       PTCLDY    52  49  89 W8        29.86R
SAUK CENTRE    CLOUDY    51  46  82 W9        29.89S
PAYNESVILLE    CLOUDY    54  45  72 W10       29.90R
AITKIN         MOCLDY    48  46  93 W3        29.80F
PINE RIVER     CLOUDY    52  43  71 NW8       29.87S
BRAINERD       CLOUDY    52  46  80 W8        29.84S
STAPLES        CLOUDY    50  45  81 W8        29.86S
LONG PRAIRIE   FAIR      50  45  81 W7        29.88S
LITTLE FALLS   CLOUDY    54  46  76 W8        29.86S
LITCHFIELD     PTCLDY    57  48  72 W8        29.90R
BUFFALO        CLOUDY    56  45  68 W8        29.89R
MAPLE LAKE     CLOUDY    56  47  70 W7        29.89R
HUTCHINSON     CLOUDY    55  48  77 W13       29.91R
$$
MNZ037-044-045-052-053-300400-
   East Central Minnesota

CITY           SKY/WX    TMP DP  RH WIND       PRES   REMARKS
PRINCETON      PTCLDY    54  48  82 SW5       29.86R
MORA           PTCLDY    50  43  76 W5        29.85R
CAMBRIDGE      PTCLDY    55  45  67 W5        29.84R
RUSH CITY      CLOUDY    51  46  80 CALM      29.84R
MOOSE LAKE     MOCLDY    50  45  81 W3        29.79S
HINCKLEY       CLOUDY    54  46  76 W6        29.82R
CLOQUET        CLOUDY    52  41  66 W7        29.78S
MCGREGOR       CLOUDY    52  45  76 W3        29.80S
$$
MNZ071>073-080-081-089-090-097-098-300400-
   Southwest Minnesota

CITY           SKY/WX    TMP DP  RH WIND       PRES   REMARKS
MONTEVIDEO     CLOUDY    57  46  67 N14G22    29.93R
CANBY          CLOUDY    56  44  65 CALM      29.96R
MARSHALL       CLEAR     53  46  77 NW7       29.95R
REDWOOD FALLS  PTCLDY    53  44  71 W7        29.92S
OLIVIA         PTCLDY    54  46  76 W6        29.92R
PIPESTONE      CLEAR     55  37  50 NW6       29.98R
WINDOM         CLEAR     52  48  87 SW6       29.96R
WORTHINGTON    CLEAR     51  46  83 W8        29.98R
JACKSON        CLEAR     50  45  81 CALM      29.98R
TRACY          PTCLDY    55  48  75 W5        29.96R
SLAYTON        CLEAR     52  44  74 W6        29.98R
$$
MNZ065>067-074>077-082>085-091>093-300400-
   South Central Minnesota

CITY           SKY/WX    TMP DP  RH WIND       PRES   REMARKS
MANKATO        CLEAR     55  46  71 W10       29.92R
NEW ULM        PTCLDY    55  43  62 W9        29.93R
ST JAMES       MOCLDY    54  48  82 W6        29.95R
FAIRMONT       CLOUDY    53  49  86 W8        29.96S
GLENCOE        CLOUDY    58  51  77 W8        29.90R
FARIBAULT      CLOUDY    57  48  72 W8        29.90R
OWATONNA       MOCLDY    55  46  71 W12       29.91R
WASECA         PTCLDY    54  46  76 W10       29.93R
ALBERT LEA     MOCLDY    57  52  82 W7        29.93R
$$
MNZ078>079-086>088-094>096-300400-
   Southeast Minnesota

CITY           SKY/WX    TMP DP  RH WIND       PRES   REMARKS
ROCHESTER      PTCLDY    54  50  86 W9        29.91R
RED WING       PTCLDY    52  46  82 CALM      29.86R
STANTON        CLOUDY    57  49  73 W9G18     29.87R
DODGE CENTER   PTCLDY    55  46  71 SW10      29.90R
WINONA         CLEAR     59  48  67 W7        29.88R
AUSTIN         LGT RAIN  55  48  76 W7        29.92R
PRESTON        PTCLDY    54  48  81 W12       29.91R
$$
ABBREVIATIONS USED IN REMARKS
   TC - TEMPERATURES IN CELSIUS
  WCI - WIND CHILL INDEX
   HX - HEAT INDEX
  VSB - VISIBILITY
$$




USA.gov is the U.S. government's official web portal to all federal, state and local government web resources and services.